Time,TemperatureF,DewpointF,PressureIn,WindDirection,WindDirectionDegrees,WindSpeedMPH,WindSpeedGustMPH,Humidity,HourlyPrecipIn,Conditions,Clouds,dailyrainin,SoftwareType,DateUTC
2013-02-26 00:01:00,39.0,28.0,30.22,ENE,74,5.0,10.0,64,0.00,,,0.00,,2013-02-26 05:01:00,
2013-02-26 00:12:00,39.0,28.0,30.22,ENE,74,5.0,10.0,64,0.00,,,0.00,,2013-02-26 05:12:00,
2013-02-26 00:22:00,39.0,29.0,30.22,East,84,5.0,8.0,67,0.00,,,0.00,,2013-02-26 05:22:00,
2013-02-26 00:32:00,39.0,29.0,30.22,ENE,70,3.0,6.0,68,0.00,,,0.00,,2013-02-26 05:32:00,
2013-02-26 00:43:00,39.0,29.0,30.22,ENE,70,3.0,6.0,68,0.00,,,0.00,,2013-02-26 05:43:00,
2013-02-26 00:52:00,38.0,29.0,30.22,ENE,65,5.0,7.0,69,0.00,,,0.00,,2013-02-26 05:52:00,
2013-02-26 01:02:00,38.0,29.0,30.22,ENE,60,5.0,8.0,70,0.00,,,0.00,,2013-02-26 06:02:00,
2013-02-26 01:11:00,38.0,29.0,30.22,ENE,60,5.0,8.0,70,0.00,,,0.00,,2013-02-26 06:11:00,
2013-02-26 01:22:00,37.0,29.0,30.22,NE,52,4.0,8.0,73,0.00,,,0.00,,2013-02-26 06:22:00,
2013-02-26 01:32:00,37.0,30.0,30.22,ENE,62,5.0,7.0,75,0.00,,,0.00,,2013-02-26 06:32:00,
2013-02-26 01:42:00,37.0,30.0,30.22,ENE,62,5.0,7.0,75,0.00,,,0.00,,2013-02-26 06:42:00,
2013-02-26 01:52:00,37.0,30.0,30.22,NNE,26,3.0,8.0,77,0.00,,,0.00,,2013-02-26 06:52:00,
2013-02-26 02:01:00,37.0,30.0,30.22,NNE,31,3.0,6.0,77,0.00,,,0.00,,2013-02-26 07:01:00,
2013-02-26 02:11:00,37.0,30.0,30.22,NNE,31,3.0,6.0,77,0.00,,,0.00,,2013-02-26 07:11:00,
2013-02-26 02:22:00,37.0,31.0,30.24,NNE,30,5.0,8.0,78,0.00,,,0.00,,2013-02-26 07:22:00,
2013-02-26 02:32:00,37.0,31.0,30.24,NNE,33,4.0,8.0,80,0.00,,,0.00,,2013-02-26 07:32:00,
2013-02-26 02:42:00,37.0,31.0,30.24,NNE,33,4.0,8.0,80,0.00,,,0.00,,2013-02-26 07:42:00,
2013-02-26 02:52:00,36.0,31.0,30.24,NNE,27,6.0,9.0,82,0.00,,,0.00,,2013-02-26 07:52:00,
2013-02-26 03:02:00,36.0,31.0,30.24,NE,39,3.0,6.0,82,0.00,,,0.00,,2013-02-26 08:02:00,
2013-02-26 03:11:00,36.0,31.0,30.24,NE,39,3.0,6.0,82,0.00,,,0.00,,2013-02-26 08:11:00,
2013-02-26 03:21:00,36.0,32.0,30.24,NE,44,3.0,9.0,84,0.00,,,0.00,,2013-02-26 08:21:00,
2013-02-26 03:32:00,36.0,32.0,30.24,NE,56,2.0,8.0,84,0.00,,,0.00,,2013-02-26 08:32:00,
2013-02-26 03:42:00,36.0,32.0,30.24,NE,56,2.0,8.0,84,0.00,,,0.00,,2013-02-26 08:42:00,
2013-02-26 03:52:00,36.0,32.0,30.24,ENE,71,2.0,6.0,85,0.00,,,0.00,,2013-02-26 08:52:00,
2013-02-26 04:02:00,36.0,32.0,30.24,NNE,28,3.0,6.0,84,0.00,,,0.00,,2013-02-26 09:02:00,
2013-02-26 04:11:00,36.0,32.0,30.24,NNE,28,3.0,6.0,84,0.00,,,0.00,,2013-02-26 09:11:00,
2013-02-26 04:21:00,36.0,31.0,30.24,NE,41,3.0,7.0,82,0.00,,,0.00,,2013-02-26 09:21:00,
2013-02-26 04:32:00,36.0,31.0,30.24,East,80,1.0,8.0,81,0.00,,,0.00,,2013-02-26 09:32:00,
2013-02-26 04:43:00,36.0,31.0,30.24,East,80,1.0,8.0,81,0.00,,,0.00,,2013-02-26 09:43:00,
2013-02-26 04:52:00,35.0,29.0,30.24,East,79,3.0,6.0,79,0.00,,,0.00,,2013-02-26 09:52:00,
2013-02-26 05:01:00,35.0,29.0,30.24,East,86,3.0,7.0,79,0.00,,,0.00,,2013-02-26 10:01:00,
2013-02-26 05:11:00,35.0,29.0,30.24,East,86,3.0,7.0,79,0.00,,,0.00,,2013-02-26 10:11:00,
2013-02-26 05:21:00,35.0,30.0,30.24,NE,44,4.0,7.0,81,0.00,,,0.00,,2013-02-26 10:21:00,
2013-02-26 05:32:00,35.0,30.0,30.24,NE,47,5.0,8.0,81,0.00,,,0.00,,2013-02-26 10:32:00,
2013-02-26 05:42:00,35.0,30.0,30.24,NE,47,5.0,8.0,81,0.00,,,0.00,,2013-02-26 10:42:00,
2013-02-26 05:52:00,35.0,30.0,30.24,NE,51,7.0,9.0,83,0.00,,,0.00,,2013-02-26 10:52:00,
2013-02-26 06:01:00,35.0,31.0,30.24,ENE,58,5.0,8.0,84,0.00,,,0.00,,2013-02-26 11:01:00,
2013-02-26 06:12:00,35.0,31.0,30.24,ENE,58,5.0,8.0,84,0.00,,,0.00,,2013-02-26 11:12:00,
2013-02-26 06:22:00,34.0,30.0,30.24,NE,41,5.0,12.0,85,0.00,,,0.00,,2013-02-26 11:22:00,
2013-02-26 06:32:00,34.0,30.0,30.24,NE,52,7.0,12.0,86,0.00,,,0.00,,2013-02-26 11:32:00,
2013-02-26 06:42:00,34.0,30.0,30.24,NE,52,7.0,12.0,86,0.00,,,0.00,,2013-02-26 11:42:00,
2013-02-26 06:53:00,34.0,31.0,30.24,NE,56,4.0,12.0,87,0.00,,,0.00,,2013-02-26 11:53:00,
2013-02-26 07:02:00,34.0,31.0,30.24,NE,49,4.0,8.0,87,0.00,,,0.00,,2013-02-26 12:02:00,
2013-02-26 07:11:00,34.0,31.0,30.24,NE,49,4.0,8.0,87,0.00,,,0.00,,2013-02-26 12:11:00,
2013-02-26 07:22:00,34.0,31.0,30.24,NE,52,6.0,9.0,88,0.00,,,0.00,,2013-02-26 12:22:00,
2013-02-26 07:32:00,34.0,31.0,30.24,NE,45,3.0,9.0,89,0.00,,,0.00,,2013-02-26 12:32:00,
2013-02-26 07:42:00,34.0,31.0,30.24,NE,45,3.0,9.0,89,0.00,,,0.00,,2013-02-26 12:42:00,
2013-02-26 07:53:00,35.0,32.0,30.24,NE,52,2.0,10.0,90,0.00,,,0.00,,2013-02-26 12:53:00,
2013-02-26 08:02:00,35.0,32.0,30.24,NE,56,7.0,9.0,89,0.00,,,0.00,,2013-02-26 13:02:00,
2013-02-26 08:11:00,35.0,32.0,30.24,NE,56,7.0,9.0,89,0.00,,,0.00,,2013-02-26 13:11:00,
2013-02-26 08:22:00,36.0,33.0,30.24,ENE,73,2.0,3.0,89,0.00,,,0.00,,2013-02-26 13:22:00,
2013-02-26 08:32:00,36.0,33.0,30.24,East,93,2.0,6.0,88,0.00,,,0.00,,2013-02-26 13:32:00,
2013-02-26 08:42:00,36.0,33.0,30.24,East,93,2.0,6.0,88,0.00,,,0.00,,2013-02-26 13:42:00,
2013-02-26 08:52:00,37.0,34.0,30.24,SSE,151,3.0,7.0,87,0.00,,,0.00,,2013-02-26 13:52:00,
2013-02-26 09:01:00,38.0,34.0,30.24,East,84,2.0,7.0,86,0.00,,,0.00,,2013-02-26 14:01:00,
2013-02-26 09:11:00,38.0,34.0,30.24,East,84,2.0,7.0,86,0.00,,,0.00,,2013-02-26 14:11:00,
2013-02-26 09:22:00,39.0,34.0,30.24,East,96,3.0,6.0,81,0.00,,,0.00,,2013-02-26 14:22:00,
2013-02-26 09:32:00,40.0,34.0,30.29,East,98,4.0,7.0,78,0.00,,,0.00,,2013-02-26 14:32:00,
2013-02-26 09:42:00,40.0,34.0,30.29,East,98,4.0,7.0,78,0.00,,,0.00,,2013-02-26 14:42:00,
2013-02-26 09:52:00,41.0,33.0,30.29,ESE,118,6.0,10.0,72,0.00,,,0.00,,2013-02-26 14:52:00,
2013-02-26 10:02:00,41.0,32.0,30.29,ESE,106,8.0,12.0,71,0.00,,,0.00,,2013-02-26 15:02:00,
2013-02-26 10:11:00,41.0,32.0,30.29,ESE,106,8.0,12.0,71,0.00,,,0.00,,2013-02-26 15:11:00,
2013-02-26 10:22:00,41.0,32.0,30.29,East,87,8.0,15.0,71,0.00,,,0.00,,2013-02-26 15:22:00,
2013-02-26 10:32:00,41.0,33.0,30.29,ESE,107,7.0,12.0,72,0.00,,,0.00,,2013-02-26 15:32:00,
2013-02-26 10:42:00,41.0,33.0,30.29,ESE,107,7.0,12.0,72,0.00,,,0.00,,2013-02-26 15:42:00,
2013-02-26 10:52:00,42.0,33.0,30.29,East,86,5.0,12.0,71,0.00,,,0.00,,2013-02-26 15:52:00,
2013-02-26 11:02:00,42.0,33.0,30.29,ENE,76,6.0,13.0,71,0.00,,,0.00,,2013-02-26 16:02:00,
2013-02-26 11:11:00,42.0,33.0,30.29,ENE,76,6.0,13.0,71,0.00,,,0.00,,2013-02-26 16:11:00,
2013-02-26 11:22:00,40.0,34.0,30.29,ENE,62,7.0,9.0,78,0.00,,,0.00,,2013-02-26 16:22:00,
2013-02-26 11:32:00,39.0,34.0,30.29,NE,35,5.0,9.0,82,0.00,,,0.00,,2013-02-26 16:32:00,
2013-02-26 11:42:00,39.0,34.0,30.29,NE,35,5.0,9.0,82,0.00,,,0.00,,2013-02-26 16:42:00,
2013-02-26 11:52:00,41.0,33.0,30.29,ESE,106,7.0,13.0,72,0.00,,,0.00,,2013-02-26 16:52:00,
2013-02-26 12:01:00,42.0,32.0,30.29,SSE,150,6.0,16.0,68,0.00,,,0.00,,2013-02-26 17:01:00,
2013-02-26 12:11:00,42.0,32.0,30.29,SSE,150,6.0,16.0,68,0.00,,,0.00,,2013-02-26 17:11:00,
2013-02-26 12:22:00,42.0,31.0,30.29,East,100,10.0,20.0,65,0.00,,,0.00,,2013-02-26 17:22:00,
2013-02-26 12:32:00,42.0,31.0,30.29,East,98,10.0,18.0,65,0.00,,,0.00,,2013-02-26 17:32:00,
2013-02-26 12:42:00,42.0,31.0,30.29,East,98,10.0,18.0,65,0.00,,,0.00,,2013-02-26 17:42:00,
2013-02-26 12:52:00,43.0,31.0,30.29,SE,126,9.0,14.0,63,0.00,,,0.00,,2013-02-26 17:52:00,
2013-02-26 13:02:00,43.0,31.0,30.29,SE,140,7.0,17.0,62,0.00,,,0.00,,2013-02-26 18:02:00,
2013-02-26 13:12:00,43.0,31.0,30.29,SE,140,7.0,17.0,62,0.00,,,0.00,,2013-02-26 18:12:00,
2013-02-26 13:21:00,43.0,31.0,30.24,SE,145,7.0,15.0,63,0.00,,,0.00,,2013-02-26 18:21:00,
2013-02-26 13:32:00,43.0,31.0,30.24,SE,139,8.0,16.0,63,0.00,,,0.00,,2013-02-26 18:32:00,
2013-02-26 13:42:00,43.0,31.0,30.24,SE,139,8.0,16.0,63,0.00,,,0.00,,2013-02-26 18:42:00,
2013-02-26 13:53:00,43.0,33.0,30.24,SE,142,7.0,14.0,67,0.00,,,0.00,,2013-02-26 18:53:00,
2013-02-26 14:01:00,43.0,33.0,30.24,East,89,9.0,17.0,67,0.00,,,0.00,,2013-02-26 19:01:00,
2013-02-26 14:11:00,43.0,33.0,30.24,East,89,9.0,17.0,67,0.00,,,0.00,,2013-02-26 19:11:00,
2013-02-26 14:22:00,43.0,32.0,30.21,East,101,7.0,18.0,65,0.00,,,0.00,,2013-02-26 19:22:00,
2013-02-26 14:32:00,43.0,32.0,30.21,ESE,109,6.0,16.0,65,0.00,,,0.00,,2013-02-26 19:32:00,
2013-02-26 14:42:00,43.0,32.0,30.21,ESE,109,6.0,16.0,65,0.00,,,0.00,,2013-02-26 19:42:00,
2013-02-26 14:52:00,43.0,32.0,30.21,South,177,6.0,16.0,64,0.00,,,0.00,,2013-02-26 19:52:00,
2013-02-26 15:01:00,42.0,31.0,30.21,SE,126,9.0,18.0,64,0.00,,,0.00,,2013-02-26 20:01:00,
2013-02-26 15:11:00,42.0,31.0,30.21,SE,126,9.0,18.0,64,0.00,,,0.00,,2013-02-26 20:11:00,
2013-02-26 15:22:00,42.0,31.0,30.21,ESE,122,10.0,20.0,66,0.00,,,0.00,,2013-02-26 20:22:00,
2013-02-26 15:32:00,42.0,32.0,30.21,SE,130,12.0,20.0,68,0.00,,,0.00,,2013-02-26 20:32:00,
2013-02-26 15:41:00,42.0,32.0,30.21,SE,130,12.0,20.0,68,0.00,,,0.00,,2013-02-26 20:41:00,
2013-02-26 15:52:00,42.0,32.0,30.21,ESE,108,11.0,23.0,67,0.00,,,0.00,,2013-02-26 20:52:00,
2013-02-26 16:01:00,41.0,31.0,30.21,SE,125,12.0,23.0,66,0.00,,,0.00,,2013-02-26 21:01:00,
2013-02-26 16:11:00,41.0,31.0,30.21,SE,125,12.0,23.0,66,0.00,,,0.00,,2013-02-26 21:11:00,
2013-02-26 16:21:00,41.0,30.0,30.21,SE,125,11.0,20.0,65,0.00,,,0.00,,2013-02-26 21:21:00,
2013-02-26 16:31:00,41.0,30.0,30.21,ESE,105,12.0,20.0,65,0.00,,,0.00,,2013-02-26 21:31:00,
2013-02-26 16:41:00,41.0,30.0,30.21,ESE,105,12.0,20.0,65,0.00,,,0.00,,2013-02-26 21:41:00,
2013-02-26 16:51:00,41.0,31.0,30.21,SE,125,14.0,21.0,68,0.00,,,0.00,,2013-02-26 21:51:00,
2013-02-26 17:01:00,41.0,31.0,30.21,East,96,10.0,18.0,68,0.00,,,0.00,,2013-02-26 22:01:00,
2013-02-26 17:11:00,41.0,31.0,30.21,East,96,10.0,18.0,68,0.00,,,0.00,,2013-02-26 22:11:00,
2013-02-26 17:21:00,40.0,31.0,30.21,SE,126,13.0,23.0,69,0.00,,,0.00,,2013-02-26 22:21:00,
2013-02-26 17:32:00,40.0,31.0,30.21,ESE,105,10.0,20.0,71,0.00,,,0.00,,2013-02-26 22:32:00,
2013-02-26 17:42:00,40.0,31.0,30.21,ESE,105,10.0,20.0,71,0.00,,,0.00,,2013-02-26 22:42:00,
2013-02-26 17:52:00,40.0,31.0,30.21,ESE,110,16.0,24.0,69,0.00,,,0.00,,2013-02-26 22:52:00,
2013-02-26 18:01:00,40.0,31.0,30.21,East,99,10.0,21.0,70,0.00,,,0.00,,2013-02-26 23:01:00,
2013-02-26 18:11:00,40.0,31.0,30.21,East,99,10.0,21.0,70,0.00,,,0.00,,2013-02-26 23:11:00,
2013-02-26 18:21:00,39.0,30.0,30.14,East,101,12.0,28.0,70,0.00,,,0.00,,2013-02-26 23:21:00,
2013-02-26 18:32:00,39.0,30.0,30.14,East,83,9.0,21.0,70,0.00,,,0.00,,2013-02-26 23:32:00,
2013-02-26 18:42:00,39.0,30.0,30.14,East,83,9.0,21.0,70,0.00,,,0.00,,2013-02-26 23:42:00,
2013-02-26 18:52:00,39.0,29.0,30.14,East,92,13.0,24.0,68,0.00,,,0.00,,2013-02-26 23:52:00,
2013-02-26 19:02:00,39.0,29.0,30.14,East,98,18.0,26.0,67,0.00,,,0.00,,2013-02-27 00:02:00,
2013-02-26 19:11:00,39.0,29.0,30.14,East,98,18.0,26.0,67,0.00,,,0.00,,2013-02-27 00:11:00,
2013-02-26 19:22:00,39.0,29.0,30.14,East,96,13.0,23.0,67,0.00,,,0.00,,2013-02-27 00:22:00,
2013-02-26 19:32:00,39.0,29.0,30.14,ESE,103,16.0,22.0,67,0.00,,,0.00,,2013-02-27 00:32:00,
2013-02-26 19:42:00,39.0,29.0,30.14,ESE,103,16.0,22.0,67,0.00,,,0.00,,2013-02-27 00:42:00,
2013-02-26 19:52:00,39.0,30.0,30.11,ESE,112,12.0,23.0,69,0.00,,,0.00,,2013-02-27 00:52:00,
2013-02-26 20:01:00,39.0,30.0,30.11,ESE,103,10.0,24.0,71,0.00,,,0.00,,2013-02-27 01:01:00,
2013-02-26 20:11:00,39.0,30.0,30.11,ESE,103,10.0,24.0,71,0.00,,,0.00,,2013-02-27 01:11:00,
2013-02-26 20:22:00,38.0,31.0,30.11,East,86,17.0,28.0,77,0.00,,,0.00,,2013-02-27 01:22:00,
2013-02-26 20:32:00,38.0,32.0,30.11,East,95,16.0,24.0,78,0.00,,,0.00,,2013-02-27 01:32:00,
2013-02-26 20:42:00,38.0,32.0,30.11,East,95,16.0,24.0,78,0.00,,,0.00,,2013-02-27 01:42:00,
2013-02-26 20:52:00,38.0,32.0,30.11,East,94,16.0,23.0,79,0.00,,,0.00,,2013-02-27 01:52:00,
2013-02-26 21:01:00,38.0,32.0,30.11,East,87,14.0,30.0,79,0.00,,,0.00,,2013-02-27 02:01:00,
2013-02-26 21:15:00,38.0,32.0,30.11,East,87,14.0,30.0,79,0.00,,,0.00,,2013-02-27 02:15:00,
2013-02-26 21:24:00,37.0,32.0,30.11,East,88,16.0,24.0,81,0.00,,,0.00,,2013-02-27 02:24:00,
2013-02-26 21:32:00,37.0,32.0,30.11,ENE,65,16.0,25.0,82,0.00,,,0.00,,2013-02-27 02:32:00,
2013-02-26 21:42:00,37.0,32.0,30.11,ENE,65,16.0,25.0,82,0.00,,,0.00,,2013-02-27 02:42:00,
2013-02-26 21:52:00,37.0,33.0,30.11,East,80,15.0,21.0,84,0.00,,,0.00,,2013-02-27 02:52:00,
2013-02-26 22:02:00,37.0,33.0,30.11,ENE,76,9.0,17.0,84,0.00,,,0.00,,2013-02-27 03:02:00,
2013-02-26 22:11:00,37.0,33.0,30.11,ENE,76,9.0,17.0,84,0.00,,,0.00,,2013-02-27 03:11:00,
2013-02-26 22:22:00,37.0,33.0,30.11,ENE,76,14.0,22.0,85,0.00,,,0.00,,2013-02-27 03:22:00,
2013-02-26 22:32:00,37.0,34.0,30.11,ENE,75,16.0,25.0,87,0.00,,,0.00,,2013-02-27 03:32:00,
2013-02-26 22:42:00,37.0,34.0,30.11,ENE,75,16.0,25.0,87,0.00,,,0.00,,2013-02-27 03:42:00,
2013-02-26 22:52:00,37.0,34.0,30.11,East,84,10.0,18.0,88,0.01,,,0.01,,2013-02-27 03:52:00,
2013-02-26 23:01:00,36.0,33.0,30.11,ENE,67,12.0,18.0,90,0.01,,,0.01,,2013-02-27 04:01:00,
2013-02-26 23:11:00,36.0,33.0,30.11,ENE,67,12.0,18.0,90,0.01,,,0.01,,2013-02-27 04:11:00,
2013-02-26 23:22:00,36.0,34.0,30.11,ENE,63,13.0,20.0,91,0.05,,,0.05,,2013-02-27 04:22:00,
2013-02-26 23:32:00,36.0,34.0,30.11,ENE,63,10.0,21.0,92,0.05,,,0.05,,2013-02-27 04:32:00,
2013-02-26 23:42:00,36.0,34.0,30.11,ENE,63,10.0,21.0,92,0.05,,,0.05,,2013-02-27 04:42:00,
2013-02-26 23:52:00,36.0,34.0,30.11,ENE,59,12.0,24.0,92,0.04,,,0.05,,2013-02-27 04:52:00,